TimeCEST,TemperatureF,Dew PointF,Humidity,Sea Level PressureIn,VisibilityMPH,Wind Direction,Wind SpeedMPH,Gust SpeedMPH,PrecipitationIn,Events,Conditions,WindDirDegrees,DateUTC
12:00 AM,82.4,57.2,42,29.89,-9999.0,South,3.5,-,N/A,,Clear,190,2013-08-22 22:00:00
12:30 AM,80.6,59.0,48,29.89,-9999.0,Variable,2.3,-,N/A,,Clear,0,2013-08-22 22:30:00
1:00 AM,78.8,60.8,54,29.89,-9999.0,South,4.6,-,N/A,,Clear,190,2013-08-22 23:00:00
4:30 AM,73.4,60.8,65,29.89,-9999.0,Calm,Calm,-,N/A,,Clear,0,2013-08-23 02:30:00
5:00 AM,71.6,60.8,69,29.86,-9999.0,Calm,Calm,-,N/A,,Clear,0,2013-08-23 03:00:00
5:30 AM,71.6,60.8,69,29.86,-9999.0,Calm,Calm,-,N/A,,Clear,0,2013-08-23 03:30:00
6:00 AM,69.8,59.0,68,29.86,-9999.0,ESE,2.3,-,N/A,,Clear,120,2013-08-23 04:00:00
6:30 AM,71.6,59.0,64,29.86,-9999.0,Calm,Calm,-,N/A,,Clear,0,2013-08-23 04:30:00
7:00 AM,69.8,60.8,73,29.86,-9999.0,Calm,Calm,-,N/A,,Clear,0,2013-08-23 05:00:00
7:30 AM,71.6,60.8,69,29.86,-9999.0,Calm,Calm,-,N/A,,Clear,0,2013-08-23 05:30:00
8:00 AM,71.6,60.8,69,29.86,-9999.0,NNE,2.3,-,N/A,,Clear,20,2013-08-23 06:00:00
8:30 AM,71.6,60.8,69,29.89,-9999.0,Calm,Calm,-,N/A,,Clear,0,2013-08-23 06:30:00
9:00 AM,71.6,60.8,69,29.89,-9999.0,Variable,2.3,-,N/A,,Clear,0,2013-08-23 07:00:00
9:30 AM,75.2,60.8,61,29.89,-9999.0,Calm,Calm,-,N/A,,Clear,0,2013-08-23 07:30:00
10:00 AM,78.8,60.8,54,29.89,-9999.0,Variable,1.2,-,N/A,,Clear,0,2013-08-23 08:00:00
10:30 AM,82.4,59.0,45,29.89,-9999.0,Calm,Calm,-,N/A,,Clear,0,2013-08-23 08:30:00
11:00 AM,86.0,55.4,35,29.89,-9999.0,Calm,Calm,-,N/A,,Clear,0,2013-08-23 09:00:00
11:30 AM,89.6,50.0,26,29.89,-9999.0,Calm,Calm,-,N/A,,Clear,0,2013-08-23 09:30:00
12:00 PM,91.4,50.0,24,29.89,-9999.0,Calm,Calm,-,N/A,,Clear,0,2013-08-23 10:00:00
12:30 PM,91.4,48.2,23,29.89,-9999.0,Calm,Calm,-,N/A,,Clear,0,2013-08-23 10:30:00
1:00 PM,93.2,44.6,19,29.89,-9999.0,West,1.2,-,N/A,,Clear,280,2013-08-23 11:00:00
1:30 PM,95.0,42.8,16,29.89,-9999.0,SSE,1.2,-,N/A,,Clear,150,2013-08-23 11:30:00
2:00 PM,96.8,42.8,16,29.89,-9999.0,SW,3.5,-,N/A,,Clear,220,2013-08-23 12:00:00
2:30 PM,98.6,41.0,14,29.86,-9999.0,SSW,4.6,-,N/A,,Clear,200,2013-08-23 12:30:00
3:00 PM,98.6,41.0,14,29.86,-9999.0,West,5.8,-,N/A,,Clear,270,2013-08-23 13:00:00
3:30 PM,98.6,42.8,15,29.86,-9999.0,Variable,4.6,-,N/A,,Clear,0,2013-08-23 13:30:00
4:00 PM,98.6,48.2,18,29.86,-9999.0,WSW,6.9,-,N/A,,Clear,240,2013-08-23 14:00:00
4:30 PM,98.6,44.6,16,29.83,-9999.0,Variable,5.8,-,N/A,,Clear,0,2013-08-23 14:30:00
5:00 PM,98.6,44.6,16,29.83,-9999.0,SW,9.2,-,N/A,,Clear,220,2013-08-23 15:00:00
5:30 PM,98.6,42.8,15,29.83,-9999.0,SW,12.7,-,N/A,,Clear,220,2013-08-23 15:30:00
6:00 PM,98.6,48.2,18,29.83,-9999.0,SSW,12.7,-,N/A,,Clear,210,2013-08-23 16:00:00
6:30 PM,98.6,48.2,18,29.80,-9999.0,SSW,12.7,-,N/A,,Clear,210,2013-08-23 16:30:00
7:00 PM,98.6,46.4,17,29.80,-9999.0,SSW,12.7,-,N/A,,Clear,210,2013-08-23 17:00:00
7:30 PM,96.8,42.8,16,29.80,-9999.0,SSW,10.4,-,N/A,,Clear,200,2013-08-23 17:30:00
8:00 PM,95.0,46.4,19,29.80,-9999.0,SSW,11.5,-,N/A,,Clear,210,2013-08-23 18:00:00
8:30 PM,93.2,50.0,23,29.80,-9999.0,SSW,8.1,-,N/A,,Clear,200,2013-08-23 18:30:00
9:00 PM,91.4,50.0,24,29.80,-9999.0,South,8.1,-,N/A,,Clear,190,2013-08-23 19:00:00
9:30 PM,89.6,53.6,29,29.83,-9999.0,South,8.1,-,N/A,,Clear,190,2013-08-23 19:30:00
10:00 PM,86.0,55.4,35,29.83,-9999.0,South,9.2,-,N/A,,Clear,190,2013-08-23 20:00:00
10:30 PM,86.0,55.4,35,29.86,-9999.0,SW,4.6,-,N/A,,Clear,230,2013-08-23 20:30:00
11:00 PM,82.4,55.4,39,29.86,-9999.0,Variable,2.3,-,N/A,,Clear,0,2013-08-23 21:00:00
11:30 PM,82.4,55.4,39,29.86,-9999.0,Calm,Calm,-,N/A,,Clear,0,2013-08-23 21:30:00